Tracking 19794 objects as of 21-Jul-2019
HD Live streaming from Space Station
objects crossing your sky now

COSMOS 1275 DEB

Track COSMOS 1275 DEB now!
10-day predictions


NORAD ID: 42144
Int'l Code: 1981-053RG
Perigee: 909.9 km
Apogee: 1,002.0 km
Inclination: 82.8 °
Period: 104.0 minutes
Semi major axis: 7326 km
RCS: Unknown
Launch date: June 4, 1981
Source: Commonwealth of Independent States (former USSR) (CIS)
Launch site: PLESETSK MISSILE AND SPACE COMPLEX (PKMTR)

Note: This is SATELLITE DEBRIS
aabbcc
Your satellite tracking list
Your tracking list is empty




NASA's NSSDC Master Catalog

Two Line Element Set (TLE):
1 42144U 81053RG  19200.43038624  .00000104  00000-0  77878-4 0  9990
2 42144  82.8029  86.4372 0062863  30.3595  91.9861 13.84269591761507
Source of the keplerian elements: AFSPC